sat.trackr.live / text

‹ back to catalog

STARLINK-34533

NORAD 64715 · 2025-142V

PAYLOAD ACTIVE UNKNOWN

§ Identity

Operator
Country
US
Launch date
2025-06-28
Launch site
AFWTR
Launch vehicle
Mass (kg)
RCS (m²)

Purposes: comms

External: N2YO · Heavens-Above · Gunter

§ Orbital elements

Epoch: 2026-09-20T09:37:48.149472Z

Period
94.14 min
Inclination
69.9991°
Eccentricity
0.0003484
Mean motion
15.29587746 rev/d
Perigee alt
474.7 km
Apogee alt
479.4 km
Semi-major
6,855.2 km
B*
4.0801e-4
RAAN
181.2502°
Arg perigee
274.1627°
Mean anomaly
85.9150°
Rev number
6,868

§ Raw data

STARLINK-345331 64715U 25142V   26263.40125173  .00011622  00000+0  40801-3 0  99962 64715  69.9991 181.2502 0003484 274.1627  85.9150 15.29587746 68685

JSON: /api/v1/satellites/64715 · /tle

For live sub-satellite position, see the globe view (requires WebGL).

§ Visibility from observer

Set your observer location to see the next 7 days of passes ≥ 10°. The values pass through the URL so the page stays shareable.

No JS? Fill the form by hand. The geolocation button needs JavaScript.